Montpelier, VT

9:32 PM EST on December 15, 2019 (GMT -0500)
Knapp State

Weather History for KMPV - July, 2019

Change the Weather History Date:

Sunday, July 14, 2019

  Actual Average Record
Temperature  
Mean Temperature 67 °F 67 °F  
Max Temperature 76 °F 79 °F 94 °F (1952)
Min Temperature 58 °F 56 °F 47 °F (1980)
Degree Days  
Heating Degree Days 0 1  
Month to date heating degree days 6 20  
Since 1 June heating degree days 150 141  
Since 1 July heating degree days 6 20  
Cooling Degree Days 2 4  
Month to date cooling degree days 52 46  
Year to date cooling degree days 72 109  
Since 1 June cooling degree days 71 99  
Growing Degree Days 16 (Base 50)    
Moisture  
Dew Point 59 °F    
Average Humidity 77    
Maximum Humidity 100    
Minimum Humidity 53    
Precipitation  
Precipitation 0.00 in 0.13 in 0.83 in (1973)
Month to date precipitation 1.17 1.71  
Year to date precipitation 26.10 18.42  
Sea Level Pressure  
Sea Level Pressure 29.94 in    
Wind  
Wind Speed 8 mph (NW)    
Max Wind Speed 22 mph    
Max Gust Speed 29 mph    
Visibility 6 miles    
Events Fog    
T = Trace of Precipitation, MM = Missing Value Source: NWS Daily Summary

Daily Weather History Graph

Daily Weather History Graph

Search for Another Location

Airport or City:

Astronomy

Jul. 14, 2019 Rise Set
Actual Time 5:19 AM EDT 8:32 PM EDT
Civil Twilight 4:44 AM EDT 9:07 PM EDT
Nautical Twilight 3:58 AM EDT 9:52 PM EDT
Astronomical Twilight 3:02 AM EDT 10:48 PM EDT
Moon 6:52 PM EDT (7/14) 3:19 AM EDT (7/14)
Length of Visible Light 16h 23m
Length of Day
15h 12m
Waxing Gibbous, 95% of the Moon is Illuminated
Jul 14
Waxing Gibbous
Jul 16
Full
Jul 24
Last Quarter
Jul 31
New
Aug 7
First Quarter

Hourly Weather History & Observations

Time (EDT) Temp. Dew Point Humidity Pressure Visibility Wind Dir Wind Speed Gust Speed Precip Events Conditions
12:51 AM 64.9 °F 62.1 °F 90% 29.90 in 10.0 mi NE 3.5 mph - 0.00 in   Clear
1:51 AM 61.0 °F 61.0 °F 100% 29.90 in 9.0 mi SW 3.5 mph - N/A   Clear
2:51 AM 61.0 °F 61.0 °F 100% 29.88 in 10.0 mi SSE 3.5 mph - N/A   Clear
3:15 AM 61.0 °F 60.1 °F 97% 29.89 in 9.0 mi Calm Calm - N/A   Scattered Clouds
3:41 AM 61.0 °F 61.0 °F 100% 29.89 in 1.8 mi Calm Calm - N/A   Scattered Clouds
3:49 AM 60.8 °F 60.8 °F 100% 29.90 in 1.2 mi Calm Calm - N/A   Scattered Clouds
3:51 AM 60.1 °F 60.1 °F 100% 29.88 in 1.5 mi Calm Calm - N/A   Mostly Cloudy
3:55 AM 60.1 °F 60.1 °F 100% 29.89 in 1.0 mi Calm Calm - N/A   Mist
4:11 AM 59.0 °F 59.0 °F 100% 29.90 in 0.8 mi Calm Calm - N/A   Mist
4:51 AM 59.0 °F 59.0 °F 100% 29.90 in 0.2 mi South 4.6 mph - N/A Fog Fog
5:25 AM 57.9 °F 57.9 °F 100% 29.91 in 1.5 mi Calm Calm - N/A   Scattered Clouds
5:32 AM 57.9 °F 57.9 °F 100% 29.92 in 1.2 mi Calm Calm - N/A   Mostly Cloudy
5:37 AM 59.0 °F 59.0 °F 100% 29.92 in 2.0 mi Calm Calm - N/A   Mostly Cloudy
5:44 AM 59.0 °F 59.0 °F 100% 29.92 in 9.0 mi Calm Calm - N/A   Scattered Clouds
5:51 AM 59.0 °F 59.0 °F 100% 29.91 in 10.0 mi Calm Calm - N/A   Mostly Cloudy
6:03 AM 59.0 °F 59.0 °F 100% 29.92 in 1.8 mi Calm Calm - N/A   Overcast
6:08 AM 59.0 °F 59.0 °F 100% 29.92 in 1.0 mi Calm Calm - N/A   Overcast
6:15 AM 59.0 °F 59.0 °F 100% 29.92 in 0.2 mi South 3.5 mph - N/A Fog Fog
6:51 AM 61.0 °F 61.0 °F 100% 29.91 in 0.2 mi Calm Calm - N/A Fog Fog
7:45 AM 62.6 °F 62.6 °F 100% 29.94 in 1.8 mi Calm Calm - N/A   Overcast
7:47 AM 62.6 °F 62.6 °F 100% 29.94 in 3.0 mi Calm Calm - N/A   Overcast
7:51 AM 63.0 °F 63.0 °F 100% 29.93 in 5.0 mi Calm Calm - N/A   Mostly Cloudy
8:03 AM 63.0 °F 63.0 °F 100% 29.94 in 10.0 mi Calm Calm - N/A   Scattered Clouds
8:51 AM 69.1 °F 63.0 °F 81% 29.93 in 10.0 mi NNW 9.2 mph - N/A   Clear
9:51 AM 72.0 °F 63.0 °F 73% 29.93 in 10.0 mi NNW 8.1 mph - N/A   Partly Cloudy
10:51 AM 73.0 °F 60.1 °F 64% 29.94 in 10.0 mi NW 10.4 mph 18.4 mph N/A   Scattered Clouds
11:51 AM 75.0 °F 59.0 °F 57% 29.96 in 10.0 mi NW 11.5 mph 19.6 mph N/A   Partly Cloudy
12:51 PM 73.9 °F 57.9 °F 57% 29.96 in 10.0 mi NNW 11.5 mph 19.6 mph N/A   Mostly Cloudy
1:51 PM 73.0 °F 57.9 °F 59% 29.96 in 10.0 mi NW 10.4 mph - N/A   Overcast
2:51 PM 73.0 °F 57.9 °F 59% 29.96 in 10.0 mi NNW 13.8 mph 23.0 mph N/A   Overcast
3:51 PM 73.9 °F 55.9 °F 53% 29.96 in 10.0 mi NW 18.4 mph 27.6 mph N/A   Clear
4:51 PM 73.0 °F 55.0 °F 53% 29.97 in 10.0 mi NW 19.6 mph 28.8 mph N/A   Clear
5:51 PM 72.0 °F 55.9 °F 57% 29.98 in 10.0 mi NW 15.0 mph 21.9 mph N/A   Clear
6:51 PM 71.1 °F 55.9 °F 59% 29.99 in 10.0 mi NW 13.8 mph 24.2 mph N/A   Partly Cloudy
7:51 PM 69.1 °F 57.9 °F 68% 30.00 in 10.0 mi NW 8.1 mph - N/A   Mostly Cloudy
8:51 PM 66.9 °F 55.9 °F 68% 30.02 in 10.0 mi NW 10.4 mph - N/A   Clear
9:51 PM 64.9 °F 54.0 °F 68% 30.04 in 10.0 mi NNW 5.8 mph - N/A   Clear
10:51 PM 64.0 °F 54.0 °F 70% 30.04 in 10.0 mi NW 5.8 mph - N/A   Clear
11:51 PM 62.1 °F 54.0 °F 75% 30.05 in 10.0 mi WNW 6.9 mph - N/A   Clear